Simultaneous Nadir Overpasses (SNOs) Predictions

Prediction of SNOs between GOES-15 and NPP Satellite Orbit:

Table of predicted SNOs for the next 14.0 days since TLE Epoch: 12/9/2023
Index Date Time (GOES-15) GOES-15 Lat,Lon NPP Lat,Lon Distance(km) Time Diff (sec)
1 12/09/2023 09:11:45 0.00, 61.24 0.57, 63.68 279.21 80
2 12/10/2023 21:33:32 -0.02, 61.17 0.60, 58.42 314.62 80
3 12/11/2023 21:12:06 -0.00, 61.18 -0.41, 62.95 201.44 80
4 12/13/2023 09:34:02 0.02, 61.27 -0.77, 57.65 412.09 80
5 12/14/2023 09:17:55 0.01, 61.27 0.19, 62.19 104.22 80
6 12/15/2023 21:39:42 -0.03, 61.21 0.92, 56.92 489.63 80
7 12/16/2023 21:18:17 -0.02, 61.23 -0.09, 61.45 25.78 80
8 12/19/2023 09:21:26 0.03, 61.34 -0.11, 60.69 74.02 80
9 12/20/2023 09:05:20 0.02, 61.35 0.91, 65.22 441.92 80
10 12/21/2023 21:27:07 -0.04, 61.29 0.26, 59.96 151.56 80
11 12/22/2023 21:05:40 -0.02, 61.31 -0.71, 64.50 363.49 80
